When you browse on this site, cookies collect data to enhance your experience and personalize the content and advertising you see.
Visit our Privacy Policy to learn more. By continuing to use the site, you agree to this use of cookies and data.
  • In Belgien
  • Länderverzeichnis
  • Für 7 Tage
  • Wassertemperatur
  • Satellitenkarten
  • Wetterkarte
  • Widgets
  • user-avatar
    Anmelden

    Stündliche Wetter Brecht

    Heute, 19 Dezember, Mittwoch

    Zeit Temperatur Niederschläge Wind Luftdruck Luftfeuchtigkeit
    00:00 +4°C° 0.1 mm 6 m/S 755 mmHg 70%
    01:00 +4°C° 0.6 mm 6 m/S 754 mmHg 75%
    02:00 +5°C° 0.6 mm 6 m/S 754 mmHg 80%
    03:00 +5°C° 0.6 mm 6 m/S 754 mmHg 85%
    04:00 +5°C° 0.2 mm 6 m/S 754 mmHg 86%
    05:00 +5°C° 0.2 mm 6 m/S 754 mmHg 88%
    06:00 +6°C° 0.2 mm 5 m/S 755 mmHg 89%
    07:00 +6°C° 0 mm 5 m/S 755 mmHg 90%
    08:00 +6°C° 0 mm 5 m/S 755 mmHg 90%
    09:00 +6°C° 0 mm 5 m/S 756 mmHg 91%
    10:00 +7°C° 0 mm 5 m/S 755 mmHg 88%
    11:00 +7°C° 0 mm 6 m/S 755 mmHg 85%
    12:00 +8°C° 0 mm 6 m/S 755 mmHg 82%
    13:00 +7°C° 0 mm 5 m/S 755 mmHg 83%
    14:00 +7°C° 0 mm 5 m/S 755 mmHg 83%
    15:00 +7°C° 0 mm 5 m/S 755 mmHg 83%
    16:00 +7°C° 0 mm 5 m/S 755 mmHg 83%
    17:00 +7°C° 0 mm 5 m/S 755 mmHg 83%
    18:00 +7°C° 0 mm 5 m/S 755 mmHg 83%
    19:00 +6°C° 0 mm 5 m/S 756 mmHg 84%
    20:00 +6°C° 0 mm 5 m/S 756 mmHg 85%
    21:00 +6°C° 0 mm 5 m/S 756 mmHg 86%
    22:00 +5°C° 0 mm 5 m/S 756 mmHg 88%
    23:00 +5°C° 0 mm 5 m/S 756 mmHg 89%

    Morgen, 20 Dezember, Donnerstag

    Zeit Temperatur Niederschläge Wind Luftdruck Luftfeuchtigkeit
    00:00 +5°C° 0 mm 5 m/S 756 mmHg 90%
    01:00 +5°C° 0 mm 5 m/S 756 mmHg 90%
    02:00 +4°C° 0 mm 6 m/S 755 mmHg 89%
    03:00 +4°C° 0 mm 6 m/S 755 mmHg 89%
    04:00 +4°C° 0.1 mm 6 m/S 755 mmHg 88%
    05:00 +4°C° 0.1 mm 7 m/S 755 mmHg 87%
    06:00 +4°C° 0.1 mm 7 m/S 755 mmHg 86%
    07:00 +5°C° 0.1 mm 7 m/S 756 mmHg 85%
    08:00 +5°C° 0.1 mm 7 m/S 756 mmHg 85%
    09:00 +5°C° 0.1 mm 7 m/S 756 mmHg 84%
    10:00 +5°C° 0.1 mm 7 m/S 756 mmHg 82%
    11:00 +6°C° 0.1 mm 7 m/S 756 mmHg 80%
    12:00 +6°C° 0.1 mm 8 m/S 756 mmHg 78%
    13:00 +6°C° 0.5 mm 7 m/S 757 mmHg 79%
    14:00 +6°C° 0.5 mm 7 m/S 757 mmHg 81%
    15:00 +6°C° 0.5 mm 7 m/S 757 mmHg 82%
    16:00 +6°C° 0.5 mm 7 m/S 757 mmHg 82%
    17:00 +6°C° 0.5 mm 7 m/S 757 mmHg 82%
    18:00 +6°C° 0.5 mm 7 m/S 757 mmHg 81%
    19:00 +6°C° 0.3 mm 7 m/S 757 mmHg 82%
    20:00 +6°C° 0.3 mm 7 m/S 757 mmHg 82%
    21:00 +6°C° 0.3 mm 7 m/S 757 mmHg 82%
    22:00 +6°C° 0.1 mm 7 m/S 757 mmHg 82%
    23:00 +5°C° 0.1 mm 7 m/S 757 mmHg 83%

    übermorgen, 21 Dezember, Freitag

    Zeit Temperatur Niederschläge Wind Luftdruck Luftfeuchtigkeit
    00:00 +5°C° 0.1 mm 6 m/S 756 mmHg 83%
    01:00 +5°C° 1.4 mm 6 m/S 756 mmHg 85%
    02:00 +5°C° 1.4 mm 6 m/S 755 mmHg 88%
    03:00 +5°C° 1.4 mm 6 m/S 754 mmHg 90%
    04:00 +6°C° 1.5 mm 7 m/S 753 mmHg 90%
    05:00 +8°C° 1.5 mm 7 m/S 751 mmHg 90%
    06:00 +9°C° 1.5 mm 8 m/S 750 mmHg 89%
    07:00 +10°C° 1 mm 8 m/S 750 mmHg 89%
    08:00 +11°C° 1 mm 9 m/S 749 mmHg 89%
    09:00 +11°C° 1 mm 9 m/S 748 mmHg 88%
    10:00 +12°C° 0.6 mm 10 m/S 749 mmHg 85%
    11:00 +12°C° 0.6 mm 10 m/S 749 mmHg 81%
    12:00 +12°C° 0.6 mm 11 m/S 750 mmHg 77%
    13:00 +11°C° 0.1 mm 10 m/S 750 mmHg 75%
    14:00 +9°C° 0.1 mm 10 m/S 751 mmHg 72%
    15:00 +8°C° 0.1 mm 10 m/S 752 mmHg 69%
    16:00 +8°C° 0 mm 9 m/S 753 mmHg 70%
    17:00 +8°C° 0 mm 9 m/S 753 mmHg 71%
    18:00 +9°C° 0 mm 8 m/S 754 mmHg 71%
    19:00 +9°C° 0 mm 8 m/S 754 mmHg 74%
    20:00 +9°C° 0 mm 8 m/S 754 mmHg 77%
    21:00 +7°C° 0 mm 8 m/S 755 mmHg 80%
    22:00 +7°C° 0 mm 8 m/S 755 mmHg 81%
    23:00 +7°C° 0 mm 8 m/S 754 mmHg 82%

    22 Dezember, Samstag

    Zeit Temperatur Niederschläge Wind Luftdruck Luftfeuchtigkeit
    00:00 +7°C° 0 mm 8 m/S 754 mmHg 83%
    01:00 +7°C° 0.2 mm 8 m/S 754 mmHg 82%
    02:00 +7°C° 0.2 mm 8 m/S 753 mmHg 81%
    03:00 +7°C° 0.2 mm 8 m/S 753 mmHg 80%
    04:00 +9°C° 0.7 mm 8 m/S 753 mmHg 81%
    05:00 +8°C° 0.7 mm 9 m/S 752 mmHg 81%
    06:00 +9°C° 0.7 mm 10 m/S 752 mmHg 82%
    07:00 +8°C° 0.1 mm 9 m/S 753 mmHg 80%
    08:00 +8°C° 0.1 mm 9 m/S 754 mmHg 79%
    09:00 +9°C° 0.1 mm 8 m/S 754 mmHg 77%
    10:00 +9°C° 0.1 mm 8 m/S 755 mmHg 76%
    11:00 +9°C° 0.1 mm 8 m/S 756 mmHg 75%
    12:00 +9°C° 0.1 mm 8 m/S 756 mmHg 74%
    13:00 +9°C° 0.1 mm 8 m/S 757 mmHg 74%
    14:00 +9°C° 0.1 mm 7 m/S 757 mmHg 74%
    15:00 +8°C° 0.1 mm 6 m/S 758 mmHg 74%
    16:00 +8°C° 0.1 mm 6 m/S 758 mmHg 75%
    17:00 +8°C° 0.1 mm 6 m/S 759 mmHg 77%
    18:00 +8°C° 0.1 mm 6 m/S 759 mmHg 78%
    19:00 +8°C° 0.1 mm 6 m/S 760 mmHg 78%
    20:00 +7°C° 0.1 mm 6 m/S 760 mmHg 78%
    21:00 +7°C° 0.1 mm 6 m/S 760 mmHg 78%
    22:00 +7°C° 0 mm 6 m/S 761 mmHg 79%
    23:00 +7°C° 0 mm 6 m/S 761 mmHg 80%

    23 Dezember, Sonntag

    Zeit Temperatur Niederschläge Wind Luftdruck Luftfeuchtigkeit
    00:00 +6°C° 0 mm 5 m/S 761 mmHg 81%
    01:00 +6°C° 0 mm 5 m/S 762 mmHg 81%
    02:00 +6°C° 0 mm 5 m/S 762 mmHg 82%
    03:00 +6°C° 0 mm 5 m/S 762 mmHg 83%
    04:00 +6°C° 0 mm 4 m/S 762 mmHg 84%
    05:00 +6°C° 0 mm 4 m/S 763 mmHg 84%
    06:00 +6°C° 0 mm 4 m/S 763 mmHg 85%
    07:00 +7°C° 0 mm 3 m/S 763 mmHg 85%
    08:00 +7°C° 0 mm 3 m/S 764 mmHg 85%
    09:00 +7°C° 0 mm 3 m/S 764 mmHg 86%
    10:00 +7°C° 0 mm 3 m/S 764 mmHg 83%
    11:00 +8°C° 0 mm 3 m/S 764 mmHg 80%
    12:00 +8°C° 0 mm 3 m/S 764 mmHg 78%
    13:00 +8°C° 0 mm 3 m/S 764 mmHg 79%
    14:00 +8°C° 0 mm 2 m/S 763 mmHg 81%
    15:00 +8°C° 0 mm 2 m/S 763 mmHg 82%
    16:00 +7°C° 0 mm 2 m/S 764 mmHg 84%
    17:00 +7°C° 0 mm 2 m/S 764 mmHg 85%
    18:00 +8°C° 0 mm 1 m/S 764 mmHg 87%
    19:00 +8°C° 0.1 mm 1 m/S 764 mmHg 88%
    20:00 +8°C° 0.1 mm 1 m/S 764 mmHg 89%
    21:00 +8°C° 0.1 mm 1 m/S 764 mmHg 89%
    22:00 +8°C° 0.1 mm 1 m/S 764 mmHg 90%
    23:00 +8°C° 0.1 mm 1 m/S 764 mmHg 90%

    24 Dezember, Montag

    Zeit Temperatur Niederschläge Wind Luftdruck Luftfeuchtigkeit
    00:00 +8°C° 0.1 mm 1 m/S 764 mmHg 91%
    01:00 +7°C° 0.1 mm 1 m/S 764 mmHg 91%
    02:00 +7°C° 0.1 mm 1 m/S 764 mmHg 91%
    03:00 +7°C° 0.1 mm 1 m/S 764 mmHg 90%
    04:00 +7°C° 0.1 mm 1 m/S 764 mmHg 90%
    05:00 +7°C° 0.1 mm 1 m/S 764 mmHg 90%
    06:00 +7°C° 0.1 mm 1 m/S 764 mmHg 90%
    07:00 +7°C° 0.1 mm 1 m/S 765 mmHg 90%
    08:00 +7°C° 0.1 mm 1 m/S 765 mmHg 89%
    09:00 +7°C° 0.1 mm 1 m/S 765 mmHg 89%
    10:00 +8°C° 0 mm 1 m/S 765 mmHg 86%
    11:00 +8°C° 0 mm 1 m/S 766 mmHg 83%
    12:00 +9°C° 0 mm 1 m/S 766 mmHg 80%
    13:00 +9°C° 0 mm 1 m/S 766 mmHg 81%
    14:00 +8°C° 0 mm 1 m/S 766 mmHg 83%
    15:00 +8°C° 0 mm 1 m/S 765 mmHg 84%
    16:00 +7°C° 0 mm 2 m/S 766 mmHg 85%
    17:00 +6°C° 0 mm 2 m/S 766 mmHg 87%
    18:00 +6°C° 0 mm 2 m/S 766 mmHg 88%
    19:00 +5°C° 0 mm 2 m/S 766 mmHg 89%
    20:00 +5°C° 0 mm 2 m/S 766 mmHg 90%
    21:00 +4°C° 0 mm 2 m/S 766 mmHg 91%
    22:00 +4°C° 0 mm 2 m/S 766 mmHg 92%
    23:00 +3°C° 0 mm 2 m/S 766 mmHg 92%
    Mehr zeigen